Home > Weather > Gaggenau > Past weeks

Flag for Germany Weather for the Past 2 Weeks in Gaggenau, Baden-Württemberg, Germany

Now
39 °F

Passing clouds.


Feels Like: 32 °F
Forecast: 29 / 46 °F
Wind: 12 mph from Southwest

Location: Karlsruhe - Baden Wurttemberg

Current Time: Feb 11, 2016 at 4:33:48 AM

Latest Report: Feb 11, 2016 at 2:50 AM


Visibility: N/A

Pressure: 29.71 "Hg

Humidity: 75%

Dew point: 32 °F

Location of GaggenauLocation

Historic Weather in Gaggenau — Graph

°F

Gaggenau Temperature Yesterday

Maximum temperature yesterday: 43 °F (at 4:50 PM)
Minimum temperature yesterday: 37 °F (at 12:20 AM)
Average temperature yesterday: 39 °F

High & Low Weather Summary for the Past Weeks

 TemperatureHumidityPressure
High59 °F (Jan 27, 2:20 PM)100% (Jan 28, 5:50 PM)30.48 "Hg (Jan 28, 5:50 PM)
Low30 °F (Feb 6, 5:50 AM)39% (Feb 6, 3:50 PM)29.12 "Hg (Feb 9, 3:50 PM)
Average46 °F78%30.02 "Hg
* Reported Jan 26 11:20 PM — Feb 10 11:20 PM, Gaggenau, Weather by CustomWeather, © 2016

Note: Actual official high and low records may vary slightly from our data, if they occured in-between our weather recording intervals... More about our weather records

Advertising

Gaggenau Weather History for the Previous 24 Hours

 ConditionsComfort  
Time TempWeatherWind HumidityBarometerVisibility
11:20 PM
Wed, Feb 10
39 °FLight rain. Passing clouds.10 mph75%29.68 "HgN/A
10:50 PM41 °FLight rain. Passing clouds.13 mph70%29.65 "HgN/A
9:50 PM41 °FPassing clouds.16 mph66%29.65 "HgN/A
9:20 PM41 °FPassing clouds.17 mph66%29.62 "HgN/A
8:50 PM41 °FPassing clouds.16 mph70%29.62 "HgN/A
8:20 PM41 °FPassing clouds.14 mph66%29.62 "HgN/A
7:50 PM43 °FPassing clouds.16 mph61%29.62 "HgN/A
7:20 PM43 °FScattered showers. Passing clouds.16 mph61%29.59 "HgN/A
6:50 PM43 °FScattered showers. Passing clouds.16 mph61%29.59 "HgN/A
6:20 PM43 °FScattered showers. Partly cloudy.18 mph61%29.56 "HgN/A
5:50 PM43 °FScattered showers. Partly cloudy.18 mph66%29.56 "HgN/A
5:20 PM43 °FScattered showers. Broken clouds.18 mph66%29.53 "HgN/A
4:50 PM43 °FScattered showers. Broken clouds.17 mph66%29.53 "HgN/A
4:20 PM41 °FScattered showers. Broken clouds.14 mph70%29.53 "HgN/A
3:50 PM41 °FBroken clouds.14 mph76%29.53 "HgN/A
3:20 PM39 °FLight rain. Partly sunny.15 mph87%29.53 "Hg6 mi
2:50 PM39 °FRain. Broken clouds.17 mph87%29.53 "Hg5 mi
2:20 PM37 °FLight rain. Broken clouds.20 mph93%29.53 "Hg5 mi
1:50 PM37 °FRain. Fog.18 mph93%29.53 "Hg3 mi
1:20 PM37 °FRain showers. Broken clouds.20 mph93%29.53 "Hg3 mi
12:59 PM37 °FRain showers. Fog.21 mph93%29.53 "Hg3 mi
12:50 PM37 °FSprinkles. Broken clouds.18 mph93%29.53 "Hg5 mi
12:20 PM39 °FSprinkles. Partly sunny.21 mph81%29.53 "Hg4 mi
11:50 AM39 °FScattered showers. Broken clouds.21 mph81%29.50 "Hg6 mi
11:20 AM39 °FLight rain. Broken clouds.18 mph81%29.50 "HgN/A
10:50 AM37 °FLight rain. Broken clouds.16 mph93%29.50 "Hg6 mi
10:20 AM39 °FLight rain. Partly sunny.17 mph81%29.50 "Hg4 mi
9:50 AM39 °FPartly sunny.18 mph81%29.47 "HgN/A
9:20 AM39 °FPartly sunny.18 mph81%29.50 "HgN/A
8:50 AM37 °FBroken clouds.17 mph93%29.50 "HgN/A
8:20 AM37 °FBroken clouds.17 mph87%29.47 "HgN/A
7:50 AM37 °FBroken clouds.15 mph93%29.47 "HgN/A
7:20 AM37 °FPassing clouds.10 mph93%29.47 "HgN/A
6:50 AM37 °FPassing clouds.9 mph87%29.47 "HgN/A
6:20 AM37 °FPassing clouds.8 mph87%29.47 "HgN/A
5:50 AM37 °FPassing clouds.5 mph87%29.47 "HgN/A
5:20 AM37 °FSprinkles. Partly cloudy.7 mph87%29.45 "HgN/A
4:50 AM37 °FLight rain. Passing clouds.9 mph87%29.45 "HgN/A
Weather by CustomWeather, © 2016

See weather overviewHow to use our weather pages